Location: ?????????
(55.6553°N, 38.9075°E)
Time: 10:47:18
(UTC+00:00)

NOSS 3-4 (A) - Pass Details

Date: 18 October 2019
Orbit: 907 x 1306 km, 63.4° (Epoch: 01 November)

Event Time Altitude Azimuth Distance (km) Brightness Sun altitude
Rises 02:59:15 0° 225° (SW) 3,542 6.0 -9.3°
Reaches altitude 10° 03:01:42 10° 225° (SW) 2,622 5.4 -8.9°
Maximum altitude 03:07:47 83° 139° (SE) 980 3.6 -8.1°
Drops below altitude 10° 03:14:24 10° 52° (NE) 2,836 6.7 -7.2°
Sets 03:17:08 0° 52° (NE) 3,851 7.4 -6.8°
